Flag for Congo Dem.Rep. Weather past 2 weeks in Kinshasa, Congo Dem.Rep.

Now
75 °F

Scattered clouds.


Feels Like: 75 °F
Forecast: 71 / 92 °F
Wind: 6 mph from Southwest

Location: Brazzaville / Maya-Maya

Current Time: Jun 2, 2015 at 9:04:13 AM

Latest Report: Jun 2, 2015 at 8:00 AM


Visibility: 5 mi

Pressure: 29.95 "Hg

Humidity: 83%

Dew point: 70 °F

Location of KinshasaLocation

Historic Weather in Kinshasa — Graph

°F

Kinshasa temperature yesterday

Maximum temperature yesterday: 86 °F (at 1:00 PM)
Minimum temperature yesterday: 70 °F (at 6:00 AM)
Average temperature yesterday: 77 °F

Past Weeks' High & Low Weather Summary

 TemperatureHumidityPressure
High91 °F (May 22, 2:00 PM)100% (May 18, 8:00 AM)30.01 "Hg (May 18, 8:00 AM)
Low70 °F (May 31, 4:00 AM)55% (May 19, 2:00 PM)29.80 "Hg (May 18, 4:00 PM)
Average79 °F80%29.92 "Hg
* Reported May 18 8:00 AM — Jun 2 8:00 AM, Kinshasa, Weather by CustomWeather, © 2015

Note: Actual official high and low records may vary slightly from our data, if they occured in-between our weather recording intervals... More about our weather records

Advertising

Kinshasa weather history for previous 24 hours

 ConditionsComfort  
Time TempWeatherWind HumidityBarometerVisibility
8:00 AM
Tue, Jun 2
75 °FScattered clouds.6 mph83%29.95 "Hg5 mi
7:00 AM72 °FPartly sunny.5 mph94%29.95 "Hg5 mi
6:00 AM70 °FScattered clouds.2 mph100%29.92 "Hg4 mi
5:00 AM72 °FPassing clouds.2 mph94%29.92 "Hg5 mi
4:00 AM72 °FClear.No wind88%29.92 "Hg5 mi
3:00 AM72 °FClear.2 mph88%29.89 "Hg5 mi
2:00 AM72 °FClear.5 mph94%29.92 "Hg5 mi
1:00 AM72 °FPassing clouds.5 mph94%29.92 "Hg5 mi
12:00 AM73 °FPassing clouds.2 mph89%29.92 "Hg5 mi
11:00 PM
Mon, Jun 1
73 °FPassing clouds.5 mph89%29.95 "Hg5 mi
10:00 PM75 °FPassing clouds.3 mph83%29.95 "Hg5 mi
9:00 PM77 °FPassing clouds.3 mph79%29.92 "Hg5 mi
8:00 PM77 °FPassing clouds.8 mph79%29.89 "Hg5 mi
7:00 PM77 °FPassing clouds.10 mph79%29.86 "Hg5 mi
6:00 PM79 °FPassing clouds.10 mph79%29.86 "Hg5 mi
5:00 PM81 °FPartly sunny.12 mph74%29.86 "HgN/A
4:00 PM82 °FScattered clouds.10 mph70%29.83 "Hg6 mi
3:00 PM82 °FPartly sunny.9 mph66%29.83 "Hg6 mi
2:00 PM84 °FPartly sunny.13 mph62%29.86 "Hg5 mi
1:00 PM86 °FScattered clouds.8 mph62%29.86 "Hg5 mi
12:00 PM84 °FScattered clouds.8 mph62%29.89 "Hg5 mi
11:00 AM82 °FScattered clouds.6 mph66%29.95 "Hg5 mi
10:00 AM81 °FScattered clouds.6 mph70%29.95 "Hg5 mi
9:00 AM77 °FPassing clouds.6 mph79%29.95 "Hg5 mi
Weather by CustomWeather, © 2015

See weather overviewHow to use our weather pages